Regional Weather Roundup
Issued by NWS

Home | Current Version | Previous Version | Text Only | Print | Product List | Glossary Off
Versions: 1 2 3 4 5 6 7 8 9 10 11 12 13 14 15 16 17 18 19 20 21 22 23 24 25 26 27 28 29 30 31 32 33 34 35 36 37 38 39 40 41 42 43 44 45 46 47 48 49 50

000
ASUS43 KLMK 180910
RWRKY
KENTUCKY REGIONAL WEATHER ROUNDUP
NATIONAL WEATHER SERVICE LOUISVILLE KY
400 AM EST MON DEC 18 2017

NOTE "FAIR" INDICATES FEW OR NO CLOUDS BELOW 12,000 FEET
WITH NO SIGNIFICANT WEATHER AND/OR OBSTRUCTIONS TO VISIBILITY.

KYZ001>023-026-027-061>063-070>075-181000-
WESTERN AND SOUTH CENTRAL KENTUCKY

CITY           SKY/WX    TMP DP  RH WIND       PRES   REMARKS
PADUCAH        CLOUDY    45  42  89 SW5       30.11S FOG
HENDERSON      CLOUDY    44  43  96 S8        30.11F
OWENSBORO      CLOUDY    44  43  96 S6        30.13S FOG
HOPKINSVILLE   CLOUDY    45  45 100 S6        30.12S FOG
BOWLING GREEN  CLOUDY    46  46 100 CALM      30.14S FOG
GLASGOW        CLOUDY   N/A N/A N/A CALM      30.14S FOG
$$

KYZ024-025-028>034-038-045-046-053-181000-
NORTH CENTRAL KENTUCKY

CITY           SKY/WX    TMP DP  RH WIND       PRES   REMARKS
LOUISVILLE/SDF CLOUDY    45  42  89 SW7       30.11S
LOUISVILLE/LOU CLOUDY    44  43  96 S7        30.12S
FORT KNOX      CLOUDY    43  43 100 S7        30.10S FOG
$$

KYZ035>037-039>044-047>052-055>060-089>105-181000-
NORTHEAST KENTUCKY

CITY           SKY/WX    TMP DP  RH WIND       PRES   REMARKS
LEXINGTON      CLOUDY    43  40  89 S8        30.11S
COVINGTON      FOG       40  40 100 S6        30.08S VSB 1/8
FRANKFORT      CLOUDY    43  40  89 SW7       30.10S
$$

KYZ054-064>069-076>088-106>120-181000-
SOUTHEAST KENTUCKY

CITY           SKY/WX    TMP DP  RH WIND       PRES   REMARKS
JACKSON        FOG       41  40  96 VRB3      30.13S VSB 1/2
LONDON         CLOUDY    44  43  96 CALM      30.14S FOG
SOMERSET       CLOUDY    41  41 100 CALM      30.16R
MIDDLESBORO    CLOUDY    40  40 100 CALM      30.17S FOG
MONTICELLO     CLOUDY    44  43  96 NE7       30.16S
$$





USA.gov is the U.S. government's official web portal to all federal, state and local government web resources and services.